sat.trackr.live / text

‹ back to catalog

KOREASAT 6A

NORAD 61910 · 2024-206A

PAYLOAD ACTIVE UNKNOWN

§ Identity

Operator
Country
SKOR
Launch date
2024-11-11
Launch site
AFETR
Launch vehicle
Mass (kg)
RCS (m²)

Purposes: comms

External: N2YO · Heavens-Above · Gunter

§ Orbital elements

Epoch: 2026-05-24T23:09:38.592000Z

Period
1,436.09 min
Inclination
0.0440°
Eccentricity
0.0000929
Mean motion
1.00272528 rev/d
Perigee alt
35,782.5 km
Apogee alt
35,790.3 km
Semi-major
42,164.5 km
B*
0.0000e+0
RAAN
109.3146°
Arg perigee
301.4185°
Mean anomaly
295.2526°
Rev number
560

§ Raw data

KOREASAT 6A1 61910U 24206A   26144.96503000 -.00000365  00000+0  00000+0 0  99942 61910   0.0440 109.3146 0000929 301.4185 295.2526  1.00272528  5602

JSON: /api/v1/satellites/61910 · /tle

For live sub-satellite position, see the globe view (requires WebGL).

§ Visibility from observer

Set your observer location to see the next 7 days of passes ≥ 10°. The values pass through the URL so the page stays shareable.

No JS? Fill the form by hand. The geolocation button needs JavaScript.